FDX396 MMMX-PANC

Flight info

Callsign FDX396
Flight time 7h 52m
Altitude 32000
Route AXIRI2A AXIRI UT137 MTY UJ45 PNG/N0500F340 SJT PNH J17 PUB CHE DNW DLN MLP LW/N0484F360 YWL MUXAT COHIL NCA11 REMBY WITTI5
Aircraft B77L/H-SDE1E2E3FGHIJ2J3J4J5M1RWXY/LB1D1

Departure

Time 2026-05-04 20:15
Airport Mexico City Benito Juárez International Airport (MMMX)

Arrival

Time 2026-05-05 04:07
Airport Ted Stevens Anchorage International Airport (PANC)
Time Latitude Longitude Altitude Speed Heading
2026-05-04 19:46 19.44085 -99.07227 7307 ft 0 kts 328°
2026-05-04 19:53 19.44075 -99.07220 7307 ft 4 kts 326°
2026-05-04 19:53 19.44053 -99.07204 7307 ft 4 kts 321°
2026-05-04 19:53 19.44038 -99.07189 7307 ft 2 kts 303°
2026-05-04 19:53 19.44032 -99.07176 7307 ft 2 kts 267°
2026-05-04 19:54 19.44035 -99.07161 7307 ft 4 kts 242°
2026-05-04 19:54 19.44048 -99.07138 7307 ft 4 kts 239°
2026-05-04 19:54 19.44059 -99.07118 7307 ft 2 kts 239°
2026-05-04 19:54 19.44065 -99.07108 7307 ft 2 kts 239°
2026-05-04 19:55 19.44066 -99.07106 7307 ft 0 kts 239°
2026-05-04 20:02 19.44064 -99.07109 7307 ft 3 kts 239°
2026-05-04 20:02 19.44047 -99.07137 7307 ft 5 kts 227°
2026-05-04 20:02 19.44015 -99.07141 7307 ft 5 kts 167°
2026-05-04 20:03 19.43982 -99.07141 7307 ft 5 kts 197°
2026-05-04 20:03 19.43955 -99.07163 7307 ft 5 kts 227°
2026-05-04 20:03 19.43935 -99.07192 7307 ft 5 kts 236°
2026-05-04 20:03 19.43916 -99.07223 7307 ft 5 kts 237°
2026-05-04 20:04 19.43898 -99.07253 7307 ft 5 kts 237°
2026-05-04 20:04 19.43879 -99.07284 7307 ft 5 kts 237°
2026-05-04 20:04 19.43861 -99.07314 7307 ft 5 kts 237°
2026-05-04 20:04 19.43844 -99.07346 7307 ft 5 kts 243°
2026-05-04 20:05 19.43826 -99.07382 7307 ft 6 kts 242°
2026-05-04 20:05 19.43805 -99.07421 7307 ft 6 kts 239°
2026-05-04 20:05 19.43780 -99.07464 7307 ft 7 kts 239°
2026-05-04 20:05 19.43752 -99.07513 7307 ft 8 kts 239°
2026-05-04 20:06 19.43721 -99.07569 7307 ft 9 kts 239°
2026-05-04 20:06 19.43687 -99.07630 7307 ft 10 kts 239°
2026-05-04 20:06 19.43651 -99.07696 7307 ft 11 kts 239°
2026-05-04 20:06 19.43611 -99.07766 7307 ft 11 kts 239°
2026-05-04 20:07 19.43570 -99.07841 7307 ft 12 kts 239°
2026-05-04 20:07 19.43525 -99.07919 7307 ft 13 kts 239°
2026-05-04 20:07 19.43478 -99.08001 7307 ft 13 kts 239°
2026-05-04 20:07 19.43431 -99.08086 7307 ft 14 kts 239°
2026-05-04 20:08 19.43383 -99.08174 7307 ft 14 kts 240°
2026-05-04 20:08 19.43334 -99.08261 7307 ft 14 kts 239°
2026-05-04 20:08 19.43285 -99.08348 7307 ft 14 kts 238°
2026-05-04 20:08 19.43236 -99.08435 7307 ft 14 kts 239°
2026-05-04 20:09 19.43188 -99.08522 7307 ft 14 kts 239°
2026-05-04 20:09 19.43138 -99.08609 7307 ft 14 kts 239°
2026-05-04 20:09 19.43089 -99.08696 7307 ft 14 kts 239°
2026-05-04 20:09 19.43041 -99.08783 7307 ft 14 kts 239°
2026-05-04 20:10 19.42992 -99.08869 7307 ft 14 kts 239°
2026-05-04 20:10 19.42945 -99.08953 7307 ft 10 kts 239°
2026-05-04 20:10 19.42909 -99.09007 7307 ft 8 kts 227°
2026-05-04 20:10 19.42872 -99.09038 7307 ft 5 kts 212°
2026-05-04 20:11 19.42841 -99.09057 7307 ft 5 kts 209°
2026-05-04 20:11 19.42809 -99.09075 7307 ft 5 kts 206°
2026-05-04 20:11 19.42776 -99.09090 7307 ft 5 kts 199°
2026-05-04 20:11 19.42740 -99.09092 7307 ft 5 kts 169°
2026-05-04 20:12 19.42713 -99.09068 7307 ft 5 kts 123°
2026-05-04 20:12 19.42702 -99.09033 7307 ft 5 kts 98°
2026-05-04 20:12 19.42698 -99.08993 7307 ft 5 kts 96°
2026-05-04 20:12 19.42694 -99.08953 7307 ft 6 kts 95°
2026-05-04 20:13 19.42692 -99.08912 7307 ft 6 kts 94°
2026-05-04 20:13 19.42689 -99.08870 7307 ft 6 kts 94°
2026-05-04 20:13 19.42686 -99.08826 7307 ft 7 kts 94°
2026-05-04 20:13 19.42681 -99.08755 7307 ft 11 kts 94°
2026-05-04 20:14 19.42676 -99.08670 7308 ft 11 kts 94°
2026-05-04 20:14 19.42699 -99.08586 7309 ft 17 kts 62°
2026-05-04 20:14 19.42853 -99.08312 7308 ft 78 kts 59°
2026-05-04 20:14 19.43253 -99.07597 7309 ft 146 kts 59°
2026-05-04 20:15 19.43883 -99.06477 7309 ft 205 kts 59°
2026-05-04 20:15 19.44644 -99.05097 7600 ft 220 kts 57°
2026-05-04 20:15 19.45393 -99.03714 8378 ft 218 kts 56°
2026-05-04 20:15 19.46273 -99.02308 8714 ft 240 kts 56°
2026-05-04 20:16 19.47232 -99.00783 9129 ft 259 kts 56°
2026-05-04 20:16 19.48241 -98.99146 9309 ft 276 kts 57°
2026-05-04 20:16 19.49308 -98.97392 9544 ft 285 kts 57°
2026-05-04 20:16 19.50334 -98.95601 9914 ft 282 kts 58°
2026-05-04 20:17 19.51336 -98.93801 10512 ft 284 kts 58°
2026-05-04 20:17 19.52340 -98.91998 11095 ft 284 kts 58°
2026-05-04 20:17 19.53357 -98.90209 11592 ft 288 kts 56°
2026-05-04 20:17 19.54627 -98.88539 12105 ft 291 kts 47°
2026-05-04 20:18 19.56054 -98.86932 12372 ft 308 kts 46°
2026-05-04 20:18 19.57589 -98.85237 12490 ft 329 kts 46°
2026-05-04 20:18 19.59213 -98.83423 12577 ft 351 kts 45°
2026-05-04 20:18 19.60928 -98.81483 12714 ft 371 kts 46°
2026-05-04 20:19 19.62723 -98.79430 12955 ft 386 kts 46°
2026-05-04 20:19 19.64558 -98.77313 13533 ft 391 kts 46°
2026-05-04 20:19 19.66416 -98.75167 14044 ft 398 kts 46°
2026-05-04 20:19 19.68294 -98.72996 14696 ft 400 kts 47°
2026-05-04 20:20 19.70305 -98.71056 15285 ft 398 kts 31°
2026-05-04 20:20 19.72847 -98.69906 15791 ft 402 kts 13°
2026-05-04 20:20 19.75623 -98.69569 16269 ft 403 kts
2026-05-04 20:20 19.78454 -98.69431 16700 ft 410 kts
2026-05-04 20:21 19.81311 -98.69272 17353 ft 410 kts
2026-05-04 20:21 19.84177 -98.69098 17955 ft 413 kts
2026-05-04 20:21 19.89975 -98.68718 18867 ft 421 kts
2026-05-04 20:22 19.92909 -98.68520 19333 ft 424 kts
2026-05-04 20:22 19.95839 -98.68570 19768 ft 421 kts 350°
2026-05-04 20:22 19.98626 -98.69538 20304 ft 424 kts 333°
2026-05-04 20:22 20.01088 -98.71264 20733 ft 426 kts 324°
2026-05-04 20:23 20.03438 -98.73155 21087 ft 432 kts 324°
2026-05-04 20:23 20.05869 -98.75091 21395 ft 439 kts 324°
2026-05-04 20:23 20.08347 -98.77038 21758 ft 444 kts 324°
2026-05-04 20:23 20.10841 -98.78976 22295 ft 444 kts 325°
2026-05-04 20:24 20.13344 -98.80910 22771 ft 446 kts 325°
2026-05-04 20:24 20.15864 -98.82861 23110 ft 451 kts 324°
2026-05-04 20:24 20.18404 -98.84850 23523 ft 453 kts 324°
2026-05-04 20:24 20.20943 -98.86844 23951 ft 454 kts 324°
2026-05-04 20:25 20.23494 -98.88846 24269 ft 457 kts 324°
2026-05-04 20:25 20.26019 -98.90925 24603 ft 459 kts 321°
2026-05-04 20:25 20.28461 -98.93120 25050 ft 459 kts 320°
2026-05-04 20:25 20.30874 -98.95353 25469 ft 460 kts 320°
2026-05-04 20:26 20.33288 -98.97585 25817 ft 462 kts 320°
2026-05-04 20:26 20.35706 -98.99798 26166 ft 464 kts 320°
2026-05-04 20:26 20.38181 -99.02041 26552 ft 465 kts 320°
2026-05-04 20:26 20.40660 -99.04280 26900 ft 467 kts 320°
2026-05-04 20:27 20.43208 -99.06424 27130 ft 469 kts 328°
2026-05-04 20:27 20.46184 -99.07847 27437 ft 471 kts 345°
2026-05-04 20:27 20.49412 -99.08407 27731 ft 470 kts 352°
2026-05-04 20:27 20.52665 -99.08887 28026 ft 474 kts 351°
2026-05-04 20:28 20.55942 -99.09431 28254 ft 479 kts 350°
2026-05-04 20:28 20.59236 -99.10012 28477 ft 483 kts 349°
2026-05-04 20:28 20.62567 -99.10614 28653 ft 488 kts 349°
2026-05-04 20:28 20.65884 -99.11217 28926 ft 490 kts 349°
2026-05-04 20:29 20.69247 -99.11828 29259 ft 491 kts 349°
2026-05-04 20:29 20.72618 -99.12440 29561 ft 493 kts 349°
2026-05-04 20:29 20.76014 -99.13055 29849 ft 494 kts 349°
2026-05-04 20:29 20.79400 -99.13667 30175 ft 494 kts 349°
2026-05-04 20:30 20.82793 -99.14279 30547 ft 493 kts 349°
2026-05-04 20:30 20.86167 -99.14887 30944 ft 491 kts 349°
2026-05-04 20:30 20.89527 -99.15492 31337 ft 489 kts 349°
2026-05-04 20:30 20.91747 -99.15892 31541 ft 489 kts 348°
2026-05-04 20:31 20.95114 -99.16499 31779 ft 491 kts 348°
2026-05-04 20:31 20.98494 -99.17110 31811 ft 494 kts 348°
2026-05-04 20:31 21.05252 -99.18332 31858 ft 490 kts 348°
2026-05-04 20:32 21.11962 -99.19546 31880 ft 487 kts 348°
2026-05-04 20:32 21.18644 -99.20757 31879 ft 486 kts 349°
2026-05-04 20:33 21.25281 -99.21960 31882 ft 486 kts 348°
2026-05-04 20:33 21.31958 -99.23172 31880 ft 488 kts 348°
2026-05-04 20:34 21.38665 -99.24391 31875 ft 489 kts 348°
2026-05-04 20:34 21.45382 -99.25612 31880 ft 490 kts 348°
2026-05-04 20:35 21.52118 -99.26838 31871 ft 491 kts 348°
2026-05-04 20:35 21.58865 -99.28070 31852 ft 491 kts 348°
2026-05-04 20:36 21.65600 -99.29307 31878 ft 491 kts 348°
2026-05-04 20:36 21.72340 -99.30547 31882 ft 491 kts 348°
2026-05-04 20:37 21.79069 -99.31789 31861 ft 490 kts 348°
2026-05-04 20:37 21.85743 -99.33021 31881 ft 490 kts 348°
2026-05-04 20:38 21.92469 -99.34262 31877 ft 489 kts 348°
2026-05-04 20:38 21.99175 -99.35502 31879 ft 488 kts 348°
2026-05-04 20:39 22.05871 -99.36742 31884 ft 488 kts 348°
2026-05-04 20:39 22.12517 -99.37972 31886 ft 487 kts 348°
2026-05-04 20:40 22.19203 -99.39212 31883 ft 487 kts 347°
2026-05-04 20:40 22.25885 -99.40453 31884 ft 488 kts 347°
2026-05-04 20:41 22.32585 -99.41696 31883 ft 488 kts 347°
2026-05-04 20:41 22.39288 -99.42942 31877 ft 489 kts 347°
2026-05-04 20:42 22.45967 -99.44185 31880 ft 489 kts 347°
2026-05-04 20:42 22.52672 -99.45443 31890 ft 489 kts 347°
2026-05-04 20:43 22.59389 -99.46752 31884 ft 490 kts 347°
2026-05-04 20:43 22.66104 -99.48073 31890 ft 490 kts 346°
2026-05-04 20:44 22.72825 -99.49389 31900 ft 490 kts 347°
2026-05-04 20:44 22.79536 -99.50701 31906 ft 489 kts 347°
2026-05-04 20:45 22.86162 -99.52004 31919 ft 483 kts 346°
2026-05-04 20:45 22.92796 -99.53301 31907 ft 484 kts 346°
2026-05-04 20:46 22.99435 -99.54595 31930 ft 483 kts 346°
2026-05-04 20:46 23.06091 -99.55902 31895 ft 487 kts 346°
2026-05-04 20:47 23.12783 -99.57217 31905 ft 488 kts 346°
2026-05-04 20:47 23.19485 -99.58529 31947 ft 492 kts 346°
2026-05-04 20:48 23.26116 -99.59841 31897 ft 482 kts 346°
2026-05-04 20:48 23.32729 -99.61148 31921 ft 484 kts 346°
2026-05-04 20:49 23.39387 -99.62462 31843 ft 484 kts 346°
2026-05-04 20:49 23.45992 -99.63768 31945 ft 484 kts 346°
2026-05-04 20:50 23.52610 -99.65069 31934 ft 487 kts 346°
2026-05-04 20:50 23.59283 -99.66391 31941 ft 488 kts 346°
2026-05-04 20:51 23.65972 -99.67726 31940 ft 487 kts 346°
2026-05-04 20:51 23.72651 -99.69050 31928 ft 487 kts 346°
2026-05-04 20:52 23.79334 -99.70376 31926 ft 487 kts 346°
2026-05-04 20:52 23.85989 -99.71702 31986 ft 484 kts 346°
2026-05-04 20:53 23.92589 -99.73016 31948 ft 483 kts 346°
2026-05-04 20:53 23.99199 -99.74337 31937 ft 482 kts 346°
2026-05-04 20:54 24.05787 -99.75654 31944 ft 481 kts 346°
2026-05-04 20:54 24.12363 -99.76967 31938 ft 482 kts 345°
2026-05-04 20:55 24.18970 -99.78293 31928 ft 483 kts 345°
2026-05-04 20:55 24.25580 -99.79612 31933 ft 483 kts 345°
2026-05-04 20:56 24.32212 -99.80941 31926 ft 484 kts 345°
2026-05-04 20:56 24.38808 -99.82270 31906 ft 485 kts 345°
2026-05-04 20:57 24.45426 -99.83594 31926 ft 483 kts 345°
2026-05-04 20:57 24.52034 -99.84924 31912 ft 482 kts 345°
2026-05-04 20:58 24.58631 -99.86254 31891 ft 482 kts 345°
2026-05-04 20:58 24.65227 -99.87578 31927 ft 481 kts 345°
2026-05-04 20:59 24.71782 -99.88907 31915 ft 483 kts 345°
2026-05-04 20:59 24.78383 -99.90243 31955 ft 483 kts 345°
2026-05-04 21:00 24.85005 -99.91589 31913 ft 483 kts 345°
2026-05-04 21:00 24.91634 -99.92920 31939 ft 484 kts 345°
2026-05-04 21:01 24.98272 -99.94258 31932 ft 485 kts 345°
2026-05-04 21:01 25.04920 -99.95624 31934 ft 486 kts 345°
2026-05-04 21:02 25.11557 -99.96988 31958 ft 482 kts 345°
2026-05-04 21:02 25.18172 -99.98308 31936 ft 483 kts 345°
2026-05-04 21:03 25.24749 -99.99639 31937 ft 483 kts 345°
2026-05-04 21:03 25.31359 -100.00990 31948 ft 483 kts 344°
2026-05-04 21:04 25.37965 -100.02342 31934 ft 483 kts 344°
2026-05-04 21:04 25.44586 -100.03695 31926 ft 483 kts 344°
2026-05-04 21:05 25.51199 -100.05047 31937 ft 482 kts 344°
2026-05-04 21:05 25.57757 -100.06389 31944 ft 482 kts 344°
2026-05-04 21:06 25.64360 -100.07743 31968 ft 482 kts 344°
2026-05-04 21:06 25.70959 -100.09097 31962 ft 482 kts 344°
2026-05-04 21:07 25.77561 -100.10453 31978 ft 482 kts 344°
2026-05-04 21:07 25.84229 -100.11541 31967 ft 485 kts 347°
2026-05-04 21:08 25.90934 -100.12447 31997 ft 485 kts 347°
2026-05-04 21:08 25.97572 -100.13400 31960 ft 484 kts 346°
2026-05-04 21:09 26.04239 -100.14395 31904 ft 483 kts 346°
2026-05-04 21:09 26.10915 -100.15391 31898 ft 482 kts 346°
2026-05-04 21:10 26.17554 -100.16384 31898 ft 481 kts 346°
2026-05-04 21:10 26.24188 -100.17381 31912 ft 481 kts 346°
2026-05-04 21:11 26.30782 -100.18373 32333 ft 478 kts 345°
2026-05-04 21:11 26.37401 -100.19370 32692 ft 479 kts 346°
2026-05-04 21:12 26.40702 -100.19870 33017 ft 478 kts 346°
2026-05-04 21:12 26.44002 -100.20361 33302 ft 478 kts 346°
2026-05-04 21:12 26.47307 -100.20857 33525 ft 480 kts 346°
2026-05-04 21:12 26.50622 -100.21358 33780 ft 481 kts 345°
2026-05-04 21:13 26.57238 -100.22353 33892 ft 477 kts 345°
2026-05-04 21:13 26.63781 -100.23319 33886 ft 472 kts 345°
2026-05-04 21:14 26.70280 -100.24283 33894 ft 471 kts 345°
2026-05-04 21:14 26.76740 -100.25246 33891 ft 471 kts 345°
2026-05-04 21:15 26.83242 -100.26215 33907 ft 470 kts 346°
2026-05-04 21:15 26.89728 -100.27181 33892 ft 469 kts 346°
2026-05-04 21:16 26.96195 -100.28146 33876 ft 468 kts 346°
2026-05-04 21:16 27.02607 -100.29105 33880 ft 466 kts 346°
2026-05-04 21:17 27.09029 -100.30100 33880 ft 465 kts 345°
2026-05-04 21:17 27.15429 -100.31104 33892 ft 464 kts 346°
2026-05-04 21:18 27.20742 -100.31935 33873 ft 464 kts 346°
2026-05-04 21:18 27.27131 -100.32929 33886 ft 463 kts 347°
2026-05-04 21:19 27.33524 -100.33899 33884 ft 463 kts 347°
2026-05-04 21:19 27.39923 -100.34864 33884 ft 463 kts 347°
2026-05-04 21:20 27.46283 -100.35829 33883 ft 463 kts 347°
2026-05-04 21:20 27.52681 -100.36802 33882 ft 464 kts 347°
2026-05-04 21:21 27.59086 -100.37777 33888 ft 464 kts 347°
2026-05-04 21:21 27.65502 -100.38756 33880 ft 465 kts 347°
2026-05-04 21:22 27.71868 -100.39727 33888 ft 464 kts 346°
2026-05-04 21:22 27.78263 -100.40703 33881 ft 462 kts 346°
2026-05-04 21:23 27.84616 -100.41675 33877 ft 459 kts 346°
2026-05-04 21:23 27.90941 -100.42644 33873 ft 457 kts 346°
2026-05-04 21:24 27.97246 -100.43611 33895 ft 456 kts 346°
2026-05-04 21:24 28.03528 -100.44577 33885 ft 455 kts 346°
2026-05-04 21:25 28.09801 -100.45542 33869 ft 455 kts 346°
2026-05-04 21:25 28.16037 -100.46502 33874 ft 455 kts 346°
2026-05-04 21:26 28.22323 -100.47471 33877 ft 455 kts 346°
2026-05-04 21:26 28.28620 -100.48443 33880 ft 456 kts 345°
2026-05-04 21:27 28.34917 -100.49416 33904 ft 457 kts 345°
2026-05-04 21:27 28.41232 -100.50393 33929 ft 458 kts 345°
2026-05-04 21:28 28.47515 -100.51366 33952 ft 458 kts 345°
2026-05-04 21:28 28.53832 -100.52345 33982 ft 459 kts 345°
2026-05-04 21:29 28.60173 -100.53330 33991 ft 459 kts 344°
2026-05-04 21:29 28.66586 -100.53793 33980 ft 470 kts 353°
2026-05-04 21:30 28.73134 -100.53559 33979 ft 470 kts 353°
2026-05-04 21:30 28.79679 -100.53327 33948 ft 470 kts 353°
2026-05-04 21:31 28.89498 -100.53020 33871 ft 470 kts 353°
2026-05-04 21:32 28.96041 -100.52829 33864 ft 470 kts 353°
2026-05-04 21:32 29.02540 -100.52638 33867 ft 470 kts 353°
2026-05-04 21:33 29.09080 -100.52444 33867 ft 470 kts 353°
2026-05-04 21:33 29.15633 -100.52249 33881 ft 471 kts 352°
2026-05-04 21:34 29.22191 -100.52054 33866 ft 471 kts 352°
2026-05-04 21:34 29.28750 -100.51859 33864 ft 471 kts 352°
2026-05-04 21:35 29.35310 -100.51663 33859 ft 471 kts 352°
2026-05-04 21:35 29.41815 -100.51468 33868 ft 471 kts 352°
2026-05-04 21:36 29.48367 -100.51272 33854 ft 471 kts 352°
2026-05-04 21:36 29.54920 -100.51075 33851 ft 470 kts 352°
2026-05-04 21:37 29.61464 -100.50878 33861 ft 469 kts 352°
2026-05-04 21:37 29.67997 -100.50682 33854 ft 469 kts 352°
2026-05-04 21:38 29.74534 -100.50486 33863 ft 469 kts 352°
2026-05-04 21:38 29.81028 -100.50291 33857 ft 469 kts 352°
2026-05-04 21:39 29.87551 -100.50094 33857 ft 468 kts 352°
2026-05-04 21:39 29.94065 -100.49897 33862 ft 467 kts 352°
2026-05-04 21:40 30.00565 -100.49700 33869 ft 467 kts 351°
2026-05-04 21:40 30.07031 -100.49505 33864 ft 467 kts 351°
2026-05-04 21:41 30.13574 -100.49307 33858 ft 467 kts 351°
2026-05-04 21:41 30.20032 -100.49111 33859 ft 467 kts 351°
2026-05-04 21:42 30.26525 -100.48914 33857 ft 467 kts 351°
2026-05-04 21:42 30.33026 -100.48716 33883 ft 467 kts 351°
2026-05-04 21:43 30.39521 -100.48518 33901 ft 467 kts 351°
2026-05-04 21:43 30.45993 -100.48321 33925 ft 467 kts 351°
2026-05-04 21:44 30.52494 -100.48122 33938 ft 467 kts 351°
2026-05-04 21:44 30.59003 -100.47923 33946 ft 467 kts 351°
2026-05-04 21:45 30.65503 -100.47723 33938 ft 467 kts 351°
2026-05-04 21:45 30.72009 -100.47524 33917 ft 466 kts 351°
2026-05-04 21:46 30.78493 -100.47324 33897 ft 465 kts 351°
2026-05-04 21:46 30.84966 -100.47125 33884 ft 465 kts 351°
2026-05-04 21:47 30.91429 -100.46926 33854 ft 464 kts 351°
2026-05-04 21:47 30.97862 -100.46728 33852 ft 464 kts 351°
2026-05-04 21:48 31.04314 -100.46529 33848 ft 464 kts 351°
2026-05-04 21:48 31.10761 -100.46330 33881 ft 463 kts 351°
2026-05-04 21:49 31.17217 -100.46130 33872 ft 464 kts 351°
2026-05-04 21:49 31.23666 -100.45930 33874 ft 463 kts 351°
2026-05-04 21:50 31.30113 -100.45730 33883 ft 463 kts 351°
2026-05-04 21:50 31.36515 -100.45782 33868 ft 453 kts 344°
2026-05-04 21:51 31.42631 -100.47001 33887 ft 439 kts 335°
2026-05-04 21:51 31.48490 -100.48844 33874 ft 438 kts 335°
2026-05-04 21:52 31.54383 -100.50694 33849 ft 438 kts 335°
2026-05-04 21:52 31.60286 -100.52533 33839 ft 438 kts 335°
2026-05-04 21:53 31.66193 -100.54366 33804 ft 439 kts 335°
2026-05-04 21:53 31.72102 -100.56199 33793 ft 439 kts 335°
2026-05-04 21:54 31.78017 -100.58036 33774 ft 440 kts 335°
2026-05-04 21:54 31.83897 -100.59865 33775 ft 440 kts 335°
2026-05-04 21:55 31.89823 -100.61710 33764 ft 441 kts 335°
2026-05-04 21:55 31.95757 -100.63561 33768 ft 441 kts 335°
2026-05-04 21:56 32.01690 -100.65414 33760 ft 441 kts 335°
2026-05-04 21:56 32.07619 -100.67268 33744 ft 440 kts 335°
2026-05-04 21:57 32.13539 -100.69121 33744 ft 440 kts 335°
2026-05-04 21:57 32.19462 -100.70978 33738 ft 440 kts 335°
2026-05-04 21:58 32.25347 -100.72825 33733 ft 438 kts 334°
2026-05-04 21:58 32.31229 -100.74673 33724 ft 437 kts 334°
2026-05-04 21:59 32.37096 -100.76520 33767 ft 435 kts 334°
2026-05-04 21:59 32.42948 -100.78365 33793 ft 435 kts 334°
2026-05-04 22:00 32.48758 -100.80200 33766 ft 434 kts 334°
2026-05-04 22:00 32.54598 -100.82047 33784 ft 434 kts 334°
2026-05-04 22:01 32.60436 -100.83895 33804 ft 433 kts 334°
2026-05-04 22:01 32.66266 -100.85743 33817 ft 433 kts 334°
2026-05-04 22:02 32.72094 -100.87593 33819 ft 434 kts 334°
2026-05-04 22:02 32.77927 -100.89447 33815 ft 433 kts 334°
2026-05-04 22:03 32.83754 -100.91301 33794 ft 433 kts 334°
2026-05-04 22:03 32.89532 -100.93142 33762 ft 432 kts 334°
2026-05-04 22:04 32.95336 -100.94994 33743 ft 432 kts 334°
2026-05-04 22:04 33.01157 -100.96854 33711 ft 432 kts 334°
2026-05-04 22:05 33.06959 -100.98711 33693 ft 432 kts 334°
2026-05-04 22:05 33.11785 -101.00258 33686 ft 432 kts 334°
2026-05-04 22:06 33.18546 -101.02426 33692 ft 432 kts 334°
2026-05-04 22:06 33.23374 -101.03978 33694 ft 432 kts 334°
2026-05-04 22:07 33.29188 -101.05848 33692 ft 432 kts 334°
2026-05-04 22:07 33.35000 -101.07720 33689 ft 432 kts 334°
2026-05-04 22:08 33.40796 -101.09589 33688 ft 431 kts 334°
2026-05-04 22:08 33.46588 -101.11459 33730 ft 431 kts 334°
2026-05-04 22:09 33.52379 -101.13333 33701 ft 431 kts 334°
2026-05-04 22:09 33.58121 -101.15192 33685 ft 430 kts 334°
2026-05-04 22:10 33.63906 -101.17068 33681 ft 429 kts 334°
2026-05-04 22:10 33.69679 -101.18943 33681 ft 429 kts 334°
2026-05-04 22:11 33.75444 -101.20819 33685 ft 429 kts 334°
2026-05-04 22:11 33.81205 -101.22695 33687 ft 429 kts 334°
2026-05-04 22:12 33.86970 -101.24575 33685 ft 428 kts 334°
2026-05-04 22:12 33.92688 -101.26443 33680 ft 428 kts 334°
2026-05-04 22:13 33.98447 -101.28327 33687 ft 430 kts 333°
2026-05-04 22:13 34.04233 -101.30223 33676 ft 430 kts 333°
2026-05-04 22:14 34.10023 -101.32122 33688 ft 431 kts 333°
2026-05-04 22:14 34.15790 -101.34016 33697 ft 431 kts 334°
2026-05-04 22:15 34.21587 -101.35923 33733 ft 432 kts 333°
2026-05-04 22:15 34.27396 -101.37838 33712 ft 434 kts 333°
2026-05-04 22:16 34.33240 -101.39765 33701 ft 435 kts 333°
2026-05-04 22:16 34.39081 -101.41695 33688 ft 435 kts 333°
2026-05-04 22:17 34.44937 -101.43631 33671 ft 436 kts 333°
2026-05-04 22:17 34.50752 -101.45557 33675 ft 436 kts 333°
2026-05-04 22:18 34.56607 -101.47499 33680 ft 435 kts 333°
2026-05-04 22:18 34.62456 -101.49442 33682 ft 434 kts 333°
2026-05-04 22:19 34.68277 -101.51379 33677 ft 434 kts 333°
2026-05-04 22:19 34.74110 -101.53322 33684 ft 433 kts 333°
2026-05-04 22:20 34.79883 -101.55249 33676 ft 432 kts 333°
2026-05-04 22:20 34.85672 -101.57183 33677 ft 430 kts 333°
2026-05-04 22:21 34.91438 -101.59114 33678 ft 430 kts 333°
2026-05-04 22:21 34.97211 -101.61049 33688 ft 430 kts 333°
2026-05-04 22:22 35.02974 -101.62984 33680 ft 429 kts 333°
2026-05-04 22:22 35.08735 -101.64922 33680 ft 429 kts 333°
2026-05-04 22:23 35.14444 -101.66844 33679 ft 429 kts 333°
2026-05-04 22:23 35.20142 -101.68904 33811 ft 420 kts 327°
2026-05-04 22:24 35.25338 -101.71958 33797 ft 413 kts 320°
2026-05-04 22:24 35.30106 -101.75818 33787 ft 410 kts 314°
2026-05-04 22:25 35.34676 -101.80013 33765 ft 410 kts 314°
2026-05-04 22:25 35.39246 -101.84219 33737 ft 410 kts 314°
2026-05-04 22:26 35.43788 -101.88384 33708 ft 410 kts 314°
2026-05-04 22:26 35.48353 -101.92564 33683 ft 409 kts 314°
2026-05-04 22:27 35.52907 -101.96736 33671 ft 408 kts 314°
2026-05-04 22:27 35.57452 -102.00907 33693 ft 407 kts 314°
2026-05-04 22:28 35.61957 -102.05046 33689 ft 406 kts 314°
2026-05-04 22:28 35.66476 -102.09206 33732 ft 406 kts 314°
2026-05-04 22:29 35.71005 -102.13381 33739 ft 406 kts 314°
2026-05-04 22:29 35.75529 -102.17557 33734 ft 406 kts 314°
2026-05-04 22:30 35.80053 -102.21738 33661 ft 406 kts 314°
2026-05-04 22:30 35.84569 -102.25918 33656 ft 406 kts 314°
2026-05-04 22:31 35.89090 -102.30110 33720 ft 407 kts 313°
2026-05-04 22:31 35.93589 -102.34287 33743 ft 407 kts 313°
2026-05-04 22:32 35.98114 -102.38494 33757 ft 406 kts 313°
2026-05-04 22:32 36.02602 -102.42672 33773 ft 406 kts 313°
2026-05-04 22:33 36.07114 -102.46880 33778 ft 406 kts 313°
2026-05-04 22:33 36.11628 -102.51095 33790 ft 407 kts 313°
2026-05-04 22:34 36.16146 -102.55321 33764 ft 406 kts 313°
2026-05-04 22:34 36.20656 -102.59544 33734 ft 406 kts 313°
2026-05-04 22:35 36.25123 -102.63734 33710 ft 406 kts 313°
2026-05-04 22:35 36.29629 -102.67968 33679 ft 405 kts 313°
2026-05-04 22:36 36.34126 -102.72198 33660 ft 406 kts 313°
2026-05-04 22:36 36.38623 -102.76435 33646 ft 405 kts 312°
2026-05-04 22:37 36.43082 -102.80642 33636 ft 404 kts 312°
2026-05-04 22:37 36.47550 -102.84865 33640 ft 403 kts 312°
2026-05-04 22:38 36.52016 -102.89092 33648 ft 403 kts 312°
2026-05-04 22:38 36.56484 -102.93328 33647 ft 405 kts 312°
2026-05-04 22:39 36.60961 -102.97580 33647 ft 405 kts 312°
2026-05-04 22:39 36.65425 -103.01823 33639 ft 406 kts 312°
2026-05-04 22:40 36.69912 -103.06095 33657 ft 406 kts 312°
2026-05-04 22:40 36.74404 -103.10378 33651 ft 406 kts 312°
2026-05-04 22:41 36.78903 -103.14677 33643 ft 408 kts 311°
2026-05-04 22:41 36.83410 -103.18993 33659 ft 409 kts 311°
2026-05-04 22:42 36.87920 -103.23318 33667 ft 411 kts 312°
2026-05-04 22:42 36.92462 -103.27678 33670 ft 412 kts 312°
2026-05-04 22:43 36.97014 -103.32057 33685 ft 413 kts 311°
2026-05-04 22:43 37.01577 -103.36450 33660 ft 414 kts 311°
2026-05-04 22:44 37.06115 -103.40829 33655 ft 414 kts 311°
2026-05-04 22:44 37.10676 -103.45235 33660 ft 414 kts 311°
2026-05-04 22:45 37.15236 -103.49649 33645 ft 413 kts 311°
2026-05-04 22:45 37.22059 -103.56267 33660 ft 414 kts 311°
2026-05-04 22:46 37.26651 -103.60621 33646 ft 421 kts 314°
2026-05-04 22:46 37.31641 -103.64560 33635 ft 425 kts 316°
2026-05-04 22:47 37.36660 -103.68498 33651 ft 424 kts 316°
2026-05-04 22:47 37.41673 -103.72453 33631 ft 426 kts 316°
2026-05-04 22:48 37.46663 -103.76403 33635 ft 426 kts 316°
2026-05-04 22:48 37.51688 -103.80392 33622 ft 427 kts 315°
2026-05-04 22:49 37.56705 -103.84378 33624 ft 426 kts 315°
2026-05-04 22:49 37.61714 -103.88365 33617 ft 426 kts 315°
2026-05-04 22:50 37.66728 -103.92364 33613 ft 426 kts 315°
2026-05-04 22:50 37.71752 -103.96379 33617 ft 427 kts 315°
2026-05-04 22:51 37.76777 -104.00398 33625 ft 428 kts 315°
2026-05-04 22:51 37.81776 -104.04404 33617 ft 428 kts 316°
2026-05-04 22:52 37.86809 -104.08442 33620 ft 428 kts 316°
2026-05-04 22:52 37.91843 -104.12489 33622 ft 427 kts 316°
2026-05-04 22:53 37.96852 -104.16522 33622 ft 427 kts 316°
2026-05-04 22:53 38.01868 -104.20568 33621 ft 426 kts 316°
2026-05-04 22:54 38.06838 -104.24584 33664 ft 426 kts 315°
2026-05-04 22:54 38.11827 -104.28622 33683 ft 425 kts 315°
2026-05-04 22:55 38.16825 -104.32674 33714 ft 426 kts 315°
2026-05-04 22:55 38.21814 -104.36726 33751 ft 426 kts 315°
2026-05-04 22:56 38.26806 -104.40787 33775 ft 425 kts 314°
2026-05-04 22:56 38.30680 -104.44481 33760 ft 412 kts 307°
2026-05-04 22:57 38.34758 -104.49488 33744 ft 406 kts 304°
2026-05-04 22:57 38.38805 -104.54509 33737 ft 406 kts 304°
2026-05-04 22:58 38.42863 -104.59535 33728 ft 407 kts 304°
2026-05-04 22:58 38.46901 -104.64543 33712 ft 408 kts 305°
2026-05-04 22:59 38.50969 -104.69595 33681 ft 408 kts 305°
2026-05-04 22:59 38.55041 -104.74660 33684 ft 408 kts 305°
2026-05-04 23:00 38.59104 -104.79723 33687 ft 408 kts 305°
2026-05-04 23:00 38.63166 -104.84794 33735 ft 408 kts 305°
2026-05-04 23:01 38.67217 -104.89859 33833 ft 406 kts 305°
2026-05-04 23:01 38.71252 -104.94908 33795 ft 405 kts 305°
2026-05-04 23:02 38.75269 -104.99949 33791 ft 404 kts 305°
2026-05-04 23:02 38.79255 -105.04957 33699 ft 403 kts 305°
2026-05-04 23:03 38.83241 -105.09985 33759 ft 401 kts 305°
2026-05-04 23:03 38.87242 -105.15030 33722 ft 403 kts 305°
2026-05-04 23:04 38.91234 -105.20069 33709 ft 401 kts 305°
2026-05-04 23:04 38.95207 -105.25095 33713 ft 401 kts 305°
2026-05-04 23:05 38.99175 -105.30122 33691 ft 400 kts 304°
2026-05-04 23:05 39.03116 -105.35128 33723 ft 401 kts 306°
2026-05-04 23:06 39.07086 -105.40179 33704 ft 402 kts 306°
2026-05-04 23:06 39.11064 -105.45244 33702 ft 402 kts 306°
2026-05-04 23:07 39.15030 -105.50303 33707 ft 401 kts 306°
2026-05-04 23:07 39.18962 -105.55326 33747 ft 399 kts 306°
2026-05-04 23:08 39.22905 -105.60376 33754 ft 401 kts 306°
2026-05-04 23:08 39.26887 -105.65484 33741 ft 404 kts 306°
2026-05-04 23:09 39.30886 -105.70620 33758 ft 407 kts 306°
2026-05-04 23:09 39.34902 -105.75786 33784 ft 408 kts 306°
2026-05-04 23:10 39.38923 -105.80968 33834 ft 409 kts 306°
2026-05-04 23:10 39.42962 -105.86183 33814 ft 411 kts 306°
2026-05-04 23:11 39.46984 -105.91383 33827 ft 411 kts 306°
2026-05-04 23:11 39.51035 -105.96635 33809 ft 413 kts 306°
2026-05-04 23:12 39.55106 -106.01912 33797 ft 414 kts 306°
2026-05-04 23:12 39.59177 -106.07206 33836 ft 415 kts 306°
2026-05-04 23:13 39.63246 -106.12504 33840 ft 414 kts 306°
2026-05-04 23:13 39.67292 -106.17788 33839 ft 411 kts 306°
2026-05-04 23:14 39.71326 -106.23046 33856 ft 410 kts 306°
2026-05-04 23:14 39.75355 -106.28319 33862 ft 412 kts 306°
2026-05-04 23:15 39.79386 -106.33616 33868 ft 417 kts 306°
2026-05-04 23:15 39.83481 -106.38998 33840 ft 418 kts 306°
2026-05-04 23:16 39.87579 -106.44396 33858 ft 419 kts 306°
2026-05-04 23:16 39.91686 -106.49810 33844 ft 420 kts 306°
2026-05-04 23:17 39.95797 -106.55241 33833 ft 422 kts 306°
2026-05-04 23:17 39.99896 -106.60664 33846 ft 423 kts 306°
2026-05-04 23:18 40.04027 -106.66141 33840 ft 423 kts 306°
2026-05-04 23:18 40.08164 -106.71633 33857 ft 424 kts 306°
2026-05-04 23:19 40.12302 -106.77142 33862 ft 424 kts 306°
2026-05-04 23:19 40.16445 -106.82668 33862 ft 426 kts 307°
2026-05-04 23:20 40.20578 -106.88190 33865 ft 428 kts 307°
2026-05-04 23:20 40.24761 -106.93788 33869 ft 430 kts 307°
2026-05-04 23:21 40.28951 -106.99403 33892 ft 430 kts 307°
2026-05-04 23:21 40.33125 -107.05010 33899 ft 431 kts 307°
2026-05-04 23:22 40.37333 -107.10677 33935 ft 437 kts 307°
2026-05-04 23:22 40.41557 -107.16371 33949 ft 439 kts 307°
2026-05-04 23:23 40.45817 -107.22125 33944 ft 439 kts 307°
2026-05-04 23:23 40.50086 -107.27876 33948 ft 440 kts 309°
2026-05-04 23:24 40.54861 -107.33052 33934 ft 449 kts 318°
2026-05-04 23:24 40.60075 -107.37515 33914 ft 448 kts 319°
2026-05-04 23:25 40.65312 -107.41987 33885 ft 447 kts 319°
2026-05-04 23:25 40.70520 -107.46471 33882 ft 446 kts 319°
2026-05-04 23:26 40.75674 -107.50931 33842 ft 445 kts 319°
2026-05-04 23:26 40.80857 -107.55429 33849 ft 445 kts 319°
2026-05-04 23:27 40.86022 -107.59922 33889 ft 444 kts 319°
2026-05-04 23:27 40.91167 -107.64404 33876 ft 442 kts 319°
2026-05-04 23:28 40.96300 -107.68884 33884 ft 442 kts 319°
2026-05-04 23:28 41.01395 -107.73339 33863 ft 441 kts 319°
2026-05-04 23:29 41.06516 -107.77827 33849 ft 441 kts 320°
2026-05-04 23:29 41.11649 -107.82334 33735 ft 443 kts 320°
2026-05-04 23:30 41.16796 -107.86861 33721 ft 443 kts 320°
2026-05-04 23:30 41.21913 -107.91370 33737 ft 445 kts 320°
2026-05-04 23:31 41.27081 -107.95933 33723 ft 447 kts 320°
2026-05-04 23:31 41.32265 -108.00518 33710 ft 448 kts 320°
2026-05-04 23:32 41.37457 -108.05119 33703 ft 448 kts 320°
2026-05-04 23:32 41.42642 -108.09722 33694 ft 448 kts 320°
2026-05-04 23:33 41.47836 -108.14342 33697 ft 448 kts 320°
2026-05-04 23:33 41.53016 -108.18959 33697 ft 448 kts 320°
2026-05-04 23:34 41.58201 -108.23592 33700 ft 449 kts 321°
2026-05-04 23:34 41.63375 -108.28224 33691 ft 451 kts 321°
2026-05-04 23:35 41.68613 -108.32921 33689 ft 453 kts 321°
2026-05-04 23:35 41.73867 -108.37642 33694 ft 455 kts 321°
2026-05-04 23:36 41.79141 -108.42391 33677 ft 458 kts 322°
2026-05-04 23:36 41.84436 -108.47168 33681 ft 459 kts 322°
2026-05-04 23:37 41.89722 -108.51944 33686 ft 461 kts 322°
2026-05-04 23:37 41.95047 -108.56768 33696 ft 463 kts 322°
2026-05-04 23:38 42.00383 -108.61610 33691 ft 464 kts 322°
2026-05-04 23:38 42.05739 -108.66482 33700 ft 464 kts 322°
2026-05-04 23:39 42.11080 -108.71349 33704 ft 464 kts 323°
2026-05-04 23:39 42.16383 -108.76192 33709 ft 463 kts 323°
2026-05-04 23:40 42.21710 -108.81067 33732 ft 462 kts 323°
2026-05-04 23:40 42.27033 -108.85949 33744 ft 463 kts 323°
2026-05-04 23:41 42.32370 -108.90853 33723 ft 463 kts 323°
2026-05-04 23:41 42.37687 -108.95750 33753 ft 463 kts 323°
2026-05-04 23:42 42.43014 -109.00666 33765 ft 463 kts 323°
2026-05-04 23:42 42.48332 -109.05585 33763 ft 462 kts 323°
2026-05-04 23:43 42.53628 -109.10492 33782 ft 460 kts 323°
2026-05-04 23:43 42.58874 -109.15363 33761 ft 459 kts 323°
2026-05-04 23:44 42.64141 -109.20265 33789 ft 460 kts 323°
2026-05-04 23:44 42.69420 -109.25188 33800 ft 460 kts 323°
2026-05-04 23:45 42.74697 -109.30119 33800 ft 460 kts 323°
2026-05-04 23:45 42.79970 -109.35058 33819 ft 460 kts 324°
2026-05-04 23:46 42.84355 -109.39172 33818 ft 460 kts 324°
2026-05-04 23:46 42.90480 -109.44930 33806 ft 459 kts 324°
2026-05-04 23:47 42.95742 -109.49890 33826 ft 459 kts 324°
2026-05-04 23:47 43.00114 -109.54018 33817 ft 460 kts 324°
2026-05-04 23:48 43.05370 -109.58990 33823 ft 460 kts 324°
2026-05-04 23:48 43.10635 -109.63981 33837 ft 460 kts 324°
2026-05-04 23:49 43.15895 -109.68980 33823 ft 461 kts 324°
2026-05-04 23:49 43.21171 -109.74002 33828 ft 461 kts 324°
2026-05-04 23:50 43.26439 -109.79029 33858 ft 462 kts 324°
2026-05-04 23:50 43.31705 -109.84065 33864 ft 461 kts 324°
2026-05-04 23:51 43.36937 -109.89068 33860 ft 458 kts 324°
2026-05-04 23:51 43.42151 -109.94086 33876 ft 456 kts 324°
2026-05-04 23:52 43.47334 -109.99078 33877 ft 454 kts 325°
2026-05-04 23:52 43.52508 -110.04066 33865 ft 452 kts 325°
2026-05-04 23:53 43.57648 -110.09033 33853 ft 451 kts 325°
2026-05-04 23:53 43.62780 -110.14004 33839 ft 450 kts 325°
2026-05-04 23:54 43.67889 -110.18963 33839 ft 449 kts 325°
2026-05-04 23:54 43.72993 -110.23929 33834 ft 448 kts 325°
2026-05-04 23:55 43.78084 -110.28891 33847 ft 447 kts 325°
2026-05-04 23:56 43.85260 -110.37045 33832 ft 446 kts 314°
2026-05-04 23:56 43.89432 -110.43372 33836 ft 443 kts 314°
2026-05-04 23:57 43.93561 -110.49634 33844 ft 442 kts 314°
2026-05-04 23:57 43.97719 -110.55921 33863 ft 440 kts 314°
2026-05-04 23:58 44.01865 -110.62185 33854 ft 440 kts 314°
2026-05-04 23:58 44.06000 -110.68447 33871 ft 439 kts 314°
2026-05-04 23:59 44.10134 -110.74716 33840 ft 439 kts 314°
2026-05-04 23:59 44.14243 -110.80962 33845 ft 439 kts 314°
2026-05-05 00:00 44.18371 -110.87253 33852 ft 439 kts 314°
2026-05-05 00:00 44.22496 -110.93556 33857 ft 440 kts 314°
2026-05-05 00:01 44.26621 -110.99872 33852 ft 441 kts 314°
2026-05-05 00:01 44.30754 -111.06212 33828 ft 442 kts 314°
2026-05-05 00:02 44.34867 -111.12536 33838 ft 442 kts 314°
2026-05-05 00:02 44.39006 -111.18914 33864 ft 442 kts 314°
2026-05-05 00:03 44.43130 -111.25286 33863 ft 441 kts 314°
2026-05-05 00:03 44.47238 -111.31647 33889 ft 440 kts 314°
2026-05-05 00:04 44.51333 -111.38001 33872 ft 438 kts 314°
2026-05-05 00:04 44.55408 -111.44339 33872 ft 437 kts 313°
2026-05-05 00:05 44.59446 -111.50633 33875 ft 436 kts 313°
2026-05-05 00:05 44.63494 -111.56959 33846 ft 435 kts 313°
2026-05-05 00:06 44.67540 -111.63295 33870 ft 435 kts 313°
2026-05-05 00:06 44.71578 -111.69632 33839 ft 435 kts 314°
2026-05-05 00:07 44.75618 -111.75986 33859 ft 436 kts 313°
2026-05-05 00:07 44.79643 -111.82333 33860 ft 438 kts 313°
2026-05-05 00:08 44.83710 -111.88759 33870 ft 439 kts 313°
2026-05-05 00:08 44.87789 -111.95219 33873 ft 441 kts 313°
2026-05-05 00:09 44.91850 -112.01665 33874 ft 442 kts 313°
2026-05-05 00:09 44.95936 -112.08169 33866 ft 442 kts 313°
2026-05-05 00:10 45.00023 -112.14686 33856 ft 443 kts 313°
2026-05-05 00:10 45.04110 -112.21219 33854 ft 442 kts 313°
2026-05-05 00:11 45.08178 -112.27738 33858 ft 441 kts 313°
2026-05-05 00:11 45.12208 -112.34211 33861 ft 440 kts 313°
2026-05-05 00:12 45.16254 -112.40725 33849 ft 439 kts 313°
2026-05-05 00:12 45.20289 -112.47237 33837 ft 439 kts 313°
2026-05-05 00:13 45.24325 -112.53757 33899 ft 439 kts 313°
2026-05-05 00:13 45.28681 -112.59797 33928 ft 439 kts 318°
2026-05-05 00:14 45.33167 -112.65698 33943 ft 440 kts 318°
2026-05-05 00:14 45.37651 -112.71630 33913 ft 440 kts 318°
2026-05-05 00:15 45.42124 -112.77586 33891 ft 440 kts 317°
2026-05-05 00:15 45.46565 -112.83522 33875 ft 440 kts 318°
2026-05-05 00:16 45.51019 -112.89489 33881 ft 438 kts 317°
2026-05-05 00:16 45.55456 -112.95447 33869 ft 437 kts 317°
2026-05-05 00:17 45.59845 -113.01361 33868 ft 435 kts 317°
2026-05-05 00:17 45.64248 -113.07295 33890 ft 435 kts 317°
2026-05-05 00:18 45.68641 -113.13229 33861 ft 433 kts 317°
2026-05-05 00:18 45.73007 -113.19146 33892 ft 433 kts 317°
2026-05-05 00:19 45.77392 -113.25101 33868 ft 434 kts 317°
2026-05-05 00:19 45.81770 -113.31060 33885 ft 434 kts 317°
2026-05-05 00:20 45.86120 -113.36995 33878 ft 434 kts 317°
2026-05-05 00:20 45.90493 -113.42974 33873 ft 434 kts 317°
2026-05-05 00:21 45.94867 -113.48969 33898 ft 434 kts 317°
2026-05-05 00:21 45.99245 -113.54982 33865 ft 435 kts 317°
2026-05-05 00:22 46.03586 -113.60968 33909 ft 434 kts 317°
2026-05-05 00:22 46.07962 -113.67001 33908 ft 435 kts 317°
2026-05-05 00:23 46.12332 -113.73038 33883 ft 435 kts 317°
2026-05-05 00:23 46.16715 -113.79117 33886 ft 438 kts 317°
2026-05-05 00:24 46.21114 -113.85230 33906 ft 440 kts 317°
2026-05-05 00:24 46.25533 -113.91383 33910 ft 441 kts 317°
2026-05-05 00:25 46.29972 -113.97581 33911 ft 443 kts 317°
2026-05-05 00:25 46.34398 -114.03778 33902 ft 443 kts 317°
2026-05-05 00:26 46.38804 -114.09958 34346 ft 442 kts 318°
2026-05-05 00:26 46.40995 -114.13040 34767 ft 438 kts 318°
2026-05-05 00:26 46.43180 -114.16114 35184 ft 435 kts 318°
2026-05-05 00:26 46.45343 -114.19162 35518 ft 433 kts 319°
2026-05-05 00:27 46.47507 -114.22214 35770 ft 433 kts 319°
2026-05-05 00:27 46.51830 -114.28310 35857 ft 434 kts 319°
2026-05-05 00:28 46.56145 -114.34437 35833 ft 436 kts 319°
2026-05-05 00:28 46.60481 -114.40590 35872 ft 435 kts 319°
2026-05-05 00:29 46.64796 -114.46727 35876 ft 433 kts 319°
2026-05-05 00:29 46.69099 -114.52858 35872 ft 432 kts 319°
2026-05-05 00:30 46.73367 -114.58958 35868 ft 431 kts 319°
2026-05-05 00:30 46.77634 -114.65077 35873 ft 429 kts 319°
2026-05-05 00:31 46.81884 -114.71178 35862 ft 427 kts 319°
2026-05-05 00:31 46.86118 -114.77273 35849 ft 427 kts 319°
2026-05-05 00:32 46.90350 -114.83376 35842 ft 428 kts 319°
2026-05-05 00:32 46.94581 -114.89497 35848 ft 427 kts 319°
2026-05-05 00:33 46.98801 -114.95620 35856 ft 427 kts 319°
2026-05-05 00:33 47.03030 -115.01764 35821 ft 427 kts 319°
2026-05-05 00:34 47.07210 -115.07858 35832 ft 426 kts 319°
2026-05-05 00:34 47.11408 -115.13984 35860 ft 426 kts 320°
2026-05-05 00:35 47.15622 -115.20143 35817 ft 428 kts 320°
2026-05-05 00:35 47.19834 -115.26319 35826 ft 428 kts 320°
2026-05-05 00:36 47.23335 -115.31466 35832 ft 427 kts 319°
2026-05-05 00:36 47.27526 -115.37650 35811 ft 426 kts 319°
2026-05-05 00:37 47.36185 -115.50448 35798 ft 424 kts 320°
2026-05-05 00:38 47.40344 -115.56627 35782 ft 422 kts 320°
2026-05-05 00:38 47.44461 -115.62750 35802 ft 422 kts 320°
2026-05-05 00:39 47.48666 -115.68798 35773 ft 421 kts 323°
2026-05-05 00:39 47.53023 -115.74598 35798 ft 422 kts 323°
2026-05-05 00:40 47.57390 -115.80392 35801 ft 422 kts 323°
2026-05-05 00:40 47.61732 -115.86230 35799 ft 425 kts 323°
2026-05-05 00:41 47.66099 -115.92153 35808 ft 426 kts 323°
2026-05-05 00:41 47.70473 -115.98102 35813 ft 427 kts 323°
2026-05-05 00:42 47.74852 -116.04074 35812 ft 426 kts 323°
2026-05-05 00:42 47.79180 -116.09993 35821 ft 425 kts 323°
2026-05-05 00:43 47.83514 -116.15932 35829 ft 422 kts 323°
2026-05-05 00:43 47.87825 -116.21854 35828 ft 421 kts 323°
2026-05-05 00:44 47.92121 -116.27767 35840 ft 419 kts 323°
2026-05-05 00:44 47.96398 -116.33668 35822 ft 418 kts 323°
2026-05-05 00:45 48.00666 -116.39569 35862 ft 420 kts 323°
2026-05-05 00:45 48.04937 -116.45484 35868 ft 422 kts 323°
2026-05-05 00:46 48.09248 -116.51473 35881 ft 423 kts 323°
2026-05-05 00:46 48.13566 -116.57491 35884 ft 425 kts 323°
2026-05-05 00:47 48.17891 -116.63533 35874 ft 424 kts 323°
2026-05-05 00:47 48.22190 -116.69554 35872 ft 422 kts 323°
2026-05-05 00:48 48.26449 -116.75530 35873 ft 421 kts 323°
2026-05-05 00:48 48.30717 -116.81535 35885 ft 419 kts 323°
2026-05-05 00:49 48.34971 -116.87532 35894 ft 419 kts 323°
2026-05-05 00:49 48.39221 -116.93539 35902 ft 419 kts 323°
2026-05-05 00:50 48.43468 -116.99551 35899 ft 419 kts 323°
2026-05-05 00:50 48.47678 -117.05529 35889 ft 418 kts 323°
2026-05-05 00:51 48.51921 -117.11569 35872 ft 419 kts 323°
2026-05-05 00:51 48.56160 -117.17616 35881 ft 420 kts 323°
2026-05-05 00:52 48.60410 -117.23686 35854 ft 421 kts 323°
2026-05-05 00:52 48.64618 -117.29732 35851 ft 419 kts 323°
2026-05-05 00:53 48.68823 -117.35784 35887 ft 416 kts 323°
2026-05-05 00:53 48.73024 -117.41836 35874 ft 417 kts 323°
2026-05-05 00:54 48.77229 -117.47905 35853 ft 417 kts 323°
2026-05-05 00:54 48.81424 -117.53976 35861 ft 417 kts 323°
2026-05-05 00:55 48.85615 -117.60057 35847 ft 416 kts 323°
2026-05-05 00:55 48.89769 -117.66103 35865 ft 416 kts 323°
2026-05-05 00:56 48.93945 -117.72196 35864 ft 416 kts 323°
2026-05-05 00:56 48.98112 -117.78289 35822 ft 414 kts 322°
2026-05-05 00:57 49.02260 -117.84369 35842 ft 413 kts 322°
2026-05-05 00:57 49.06395 -117.90445 35823 ft 412 kts 323°
2026-05-05 00:58 49.10490 -117.96473 35823 ft 412 kts 323°
2026-05-05 00:58 49.14607 -118.02548 35878 ft 410 kts 323°
2026-05-05 00:59 49.18717 -118.08637 35845 ft 411 kts 323°
2026-05-05 00:59 49.22826 -118.14728 35824 ft 412 kts 323°
2026-05-05 01:00 49.26971 -118.20886 35843 ft 417 kts 322°
2026-05-05 01:00 49.31128 -118.27087 35850 ft 416 kts 322°
2026-05-05 01:01 49.35262 -118.33271 35835 ft 414 kts 322°
2026-05-05 01:01 49.39388 -118.39455 35842 ft 415 kts 323°
2026-05-05 01:02 49.43501 -118.45630 35837 ft 416 kts 322°
2026-05-05 01:02 49.47633 -118.51847 35853 ft 415 kts 322°
2026-05-05 01:03 49.51744 -118.58053 35858 ft 412 kts 322°
2026-05-05 01:03 49.55826 -118.64234 35872 ft 409 kts 322°
2026-05-05 01:04 49.59235 -118.69405 35864 ft 411 kts 322°
2026-05-05 01:04 49.65340 -118.78691 35859 ft 413 kts 322°
2026-05-05 01:05 49.69443 -118.84949 35863 ft 415 kts 322°
2026-05-05 01:05 49.73545 -118.91225 35876 ft 415 kts 322°
2026-05-05 01:06 49.77654 -118.97527 35868 ft 417 kts 322°
2026-05-05 01:06 49.81743 -119.03814 35867 ft 417 kts 322°
2026-05-05 01:07 49.85859 -119.10159 35877 ft 418 kts 322°
2026-05-05 01:07 49.89986 -119.16533 35874 ft 418 kts 322°
2026-05-05 01:08 49.94094 -119.22905 35861 ft 416 kts 322°
2026-05-05 01:08 49.98181 -119.29253 35856 ft 414 kts 322°
2026-05-05 01:09 50.02249 -119.35584 35878 ft 414 kts 322°
2026-05-05 01:09 50.06345 -119.41831 35857 ft 412 kts 325°
2026-05-05 01:10 50.10821 -119.47260 35852 ft 407 kts 328°
2026-05-05 01:10 50.15322 -119.52602 35846 ft 406 kts 328°
2026-05-05 01:11 50.19816 -119.57975 35837 ft 409 kts 328°
2026-05-05 01:11 50.24326 -119.63387 35863 ft 408 kts 328°
2026-05-05 01:12 50.28829 -119.68803 35860 ft 409 kts 328°
2026-05-05 01:12 50.33317 -119.74227 35845 ft 407 kts 328°
2026-05-05 01:13 50.37816 -119.79652 35849 ft 409 kts 327°
2026-05-05 01:13 50.42330 -119.85115 35865 ft 411 kts 327°
2026-05-05 01:14 50.46856 -119.90616 35864 ft 412 kts 327°
2026-05-05 01:14 50.51385 -119.96110 35843 ft 412 kts 327°
2026-05-05 01:15 50.55877 -120.01612 35848 ft 413 kts 327°
2026-05-05 01:15 50.60410 -120.07170 35863 ft 413 kts 327°
2026-05-05 01:16 50.64950 -120.12742 35854 ft 413 kts 327°
2026-05-05 01:16 50.69485 -120.18321 35877 ft 414 kts 327°
2026-05-05 01:17 50.74033 -120.23927 35848 ft 414 kts 327°
2026-05-05 01:17 50.78566 -120.29535 35855 ft 412 kts 326°
2026-05-05 01:18 50.83056 -120.35102 35848 ft 412 kts 327°
2026-05-05 01:18 50.87557 -120.40695 35860 ft 410 kts 326°
2026-05-05 01:19 50.92040 -120.46278 35852 ft 410 kts 326°
2026-05-05 01:19 50.96528 -120.51881 35872 ft 410 kts 326°
2026-05-05 01:20 51.01017 -120.57501 35891 ft 411 kts 326°
2026-05-05 01:20 51.05509 -120.63141 35912 ft 411 kts 326°
2026-05-05 01:21 51.09974 -120.68759 35915 ft 412 kts 326°
2026-05-05 01:21 51.14475 -120.74438 35911 ft 413 kts 326°
2026-05-05 01:22 51.18978 -120.80135 35927 ft 413 kts 326°
2026-05-05 01:22 51.23479 -120.85842 35938 ft 413 kts 326°
2026-05-05 01:23 51.27986 -120.91573 35947 ft 414 kts 326°
2026-05-05 01:23 51.32488 -120.97311 35932 ft 414 kts 325°
2026-05-05 01:24 51.36959 -121.03025 35965 ft 414 kts 325°
2026-05-05 01:24 51.41460 -121.08794 35965 ft 415 kts 325°
2026-05-05 01:25 51.45976 -121.14595 35967 ft 415 kts 325°
2026-05-05 01:25 51.50459 -121.20370 35971 ft 416 kts 325°
2026-05-05 01:26 51.54968 -121.26191 35973 ft 416 kts 324°
2026-05-05 01:26 51.59484 -121.32039 35978 ft 416 kts 324°
2026-05-05 01:27 51.63992 -121.37893 35987 ft 416 kts 324°
2026-05-05 01:27 51.68501 -121.43761 35986 ft 416 kts 324°
2026-05-05 01:28 51.72982 -121.49609 35978 ft 417 kts 324°
2026-05-05 01:28 51.77478 -121.55493 35991 ft 416 kts 324°
2026-05-05 01:29 51.81972 -121.61389 35985 ft 416 kts 324°
2026-05-05 01:29 51.86474 -121.67311 35989 ft 416 kts 324°
2026-05-05 01:30 51.90969 -121.73240 35972 ft 416 kts 324°
2026-05-05 01:30 51.95451 -121.79168 35987 ft 416 kts 324°
2026-05-05 01:31 51.99904 -121.85072 35990 ft 416 kts 324°
2026-05-05 01:31 52.04383 -121.91028 35988 ft 416 kts 324°
2026-05-05 01:32 52.08863 -121.97001 35998 ft 416 kts 324°
2026-05-05 01:32 52.13334 -122.02977 35993 ft 416 kts 323°
2026-05-05 01:33 52.17785 -122.08944 35999 ft 417 kts 323°
2026-05-05 01:33 52.22260 -122.14957 35992 ft 417 kts 323°
2026-05-05 01:34 52.26760 -122.20931 35991 ft 417 kts 324°
2026-05-05 01:34 52.31315 -122.26827 35968 ft 417 kts 324°
2026-05-05 01:35 52.35863 -122.32719 35981 ft 418 kts 324°
2026-05-05 01:35 52.40412 -122.38646 35994 ft 418 kts 324°
2026-05-05 01:36 52.44938 -122.44570 35996 ft 418 kts 323°
2026-05-05 01:36 52.49485 -122.50545 35987 ft 419 kts 323°
2026-05-05 01:37 52.54036 -122.56541 35985 ft 419 kts 323°
2026-05-05 01:37 52.58589 -122.62554 35993 ft 419 kts 323°
2026-05-05 01:38 52.63136 -122.68576 35995 ft 419 kts 323°
2026-05-05 01:38 52.67677 -122.74608 35991 ft 419 kts 323°
2026-05-05 01:39 52.72195 -122.80624 35992 ft 419 kts 323°
2026-05-05 01:39 52.76739 -122.86690 36004 ft 420 kts 323°
2026-05-05 01:40 52.81275 -122.92766 36002 ft 420 kts 323°
2026-05-05 01:40 52.85818 -122.98865 36003 ft 420 kts 323°
2026-05-05 01:41 52.90351 -123.04970 36006 ft 420 kts 322°
2026-05-05 01:41 52.94853 -123.11049 36007 ft 420 kts 322°
2026-05-05 01:42 52.99393 -123.17195 36018 ft 420 kts 322°
2026-05-05 01:42 53.03921 -123.23343 36006 ft 420 kts 322°
2026-05-05 01:43 53.08455 -123.29517 36003 ft 421 kts 322°
2026-05-05 01:43 53.12987 -123.35705 36003 ft 421 kts 322°
2026-05-05 01:44 53.17491 -123.41873 36020 ft 422 kts 322°
2026-05-05 01:44 53.22030 -123.48106 36016 ft 422 kts 321°
2026-05-05 01:45 53.26568 -123.54356 36008 ft 423 kts 321°
2026-05-05 01:45 53.31107 -123.60623 36011 ft 423 kts 321°
2026-05-05 01:46 53.35647 -123.66910 36022 ft 423 kts 321°
2026-05-05 01:46 53.40173 -123.73197 36021 ft 423 kts 321°
2026-05-05 01:47 53.44699 -123.79501 36028 ft 423 kts 321°
2026-05-05 01:47 53.49223 -123.85821 36016 ft 423 kts 321°
2026-05-05 01:48 53.53750 -123.92162 36025 ft 424 kts 321°
2026-05-05 01:48 53.58247 -123.98480 36025 ft 424 kts 321°
2026-05-05 01:49 53.62769 -124.04853 36035 ft 424 kts 321°
2026-05-05 01:49 53.67293 -124.11246 36037 ft 424 kts 320°
2026-05-05 01:50 53.71814 -124.17654 36044 ft 424 kts 320°
2026-05-05 01:50 53.76345 -124.24093 36041 ft 425 kts 320°
2026-05-05 01:51 53.80104 -124.29449 36040 ft 425 kts 320°
2026-05-05 01:51 53.84632 -124.35919 36039 ft 426 kts 320°
2026-05-05 01:52 53.89891 -124.43457 36034 ft 426 kts 320°
2026-05-05 01:52 53.93685 -124.48913 36036 ft 426 kts 320°
2026-05-05 01:53 53.98181 -124.55394 36045 ft 426 kts 320°
2026-05-05 01:53 54.02698 -124.61924 36053 ft 426 kts 320°
2026-05-05 01:54 54.07200 -124.68454 36051 ft 426 kts 320°
2026-05-05 01:54 54.11710 -124.75012 36054 ft 426 kts 320°
2026-05-05 01:55 54.16187 -124.81544 36051 ft 426 kts 319°
2026-05-05 01:55 54.20691 -124.88132 36060 ft 426 kts 319°
2026-05-05 01:56 54.25192 -124.94738 36063 ft 426 kts 319°
2026-05-05 01:56 54.29687 -125.01353 36073 ft 426 kts 319°
2026-05-05 01:57 54.34167 -125.07966 36066 ft 427 kts 319°
2026-05-05 01:57 54.38667 -125.14628 36059 ft 428 kts 319°
2026-05-05 01:58 54.43177 -125.21326 36064 ft 428 kts 319°
2026-05-05 01:58 54.47681 -125.28037 36068 ft 429 kts 319°
2026-05-05 01:59 54.52191 -125.34775 36057 ft 429 kts 319°
2026-05-05 01:59 54.56671 -125.41489 36059 ft 430 kts 318°
2026-05-05 02:00 54.61192 -125.48283 36045 ft 431 kts 318°
2026-05-05 02:00 54.65703 -125.55087 36061 ft 431 kts 318°
2026-05-05 02:01 54.70219 -125.61918 36044 ft 431 kts 318°
2026-05-05 02:01 54.74728 -125.68757 36036 ft 431 kts 318°
2026-05-05 02:02 54.79231 -125.75610 36045 ft 431 kts 318°
2026-05-05 02:02 54.83736 -125.82488 36046 ft 431 kts 317°
2026-05-05 02:03 54.88202 -125.89327 36044 ft 431 kts 317°
2026-05-05 02:03 54.92695 -125.96227 36048 ft 431 kts 317°
2026-05-05 02:04 54.97185 -126.03145 36046 ft 431 kts 317°
2026-05-05 02:04 55.01684 -126.10098 36036 ft 432 kts 317°
2026-05-05 02:05 55.06175 -126.17059 36034 ft 432 kts 317°
2026-05-05 02:05 55.10671 -126.24052 36031 ft 433 kts 317°
2026-05-05 02:06 55.15144 -126.31033 36027 ft 434 kts 317°
2026-05-05 02:06 55.19645 -126.38076 36025 ft 434 kts 316°
2026-05-05 02:07 55.24149 -126.45147 36033 ft 434 kts 316°
2026-05-05 02:07 55.28656 -126.52246 36023 ft 435 kts 316°
2026-05-05 02:08 55.33170 -126.59378 36021 ft 436 kts 316°
2026-05-05 02:08 55.37647 -126.66475 36023 ft 436 kts 316°
2026-05-05 02:09 55.42146 -126.73630 36024 ft 436 kts 316°
2026-05-05 02:09 55.46646 -126.80807 36024 ft 436 kts 316°
2026-05-05 02:10 55.51138 -126.87996 36024 ft 436 kts 316°
2026-05-05 02:10 55.55630 -126.95209 36016 ft 436 kts 316°
2026-05-05 02:11 55.60120 -127.02441 36020 ft 436 kts 315°
2026-05-05 02:11 55.64607 -127.09693 36019 ft 437 kts 315°
2026-05-05 02:12 55.71339 -127.20616 36031 ft 438 kts 315°
2026-05-05 02:13 55.75801 -127.27885 36024 ft 438 kts 315°
2026-05-05 02:13 55.80298 -127.35235 36030 ft 438 kts 315°
2026-05-05 02:14 55.84786 -127.42595 36029 ft 438 kts 315°
2026-05-05 02:14 55.89234 -127.49915 36026 ft 438 kts 315°
2026-05-05 02:15 55.93705 -127.57296 36032 ft 438 kts 315°
2026-05-05 02:15 55.98161 -127.64676 36040 ft 437 kts 315°
2026-05-05 02:16 56.02624 -127.72088 36042 ft 438 kts 315°
2026-05-05 02:16 56.07085 -127.79526 36019 ft 438 kts 314°
2026-05-05 02:17 56.11515 -127.86939 36027 ft 439 kts 314°
2026-05-05 02:17 56.15974 -127.94416 36028 ft 438 kts 314°
2026-05-05 02:18 56.20430 -128.01923 36011 ft 439 kts 314°
2026-05-05 02:18 56.24872 -128.09430 36033 ft 438 kts 314°
2026-05-05 02:19 56.29323 -128.16969 36036 ft 439 kts 314°
2026-05-05 02:19 56.33745 -128.24493 36035 ft 439 kts 314°
2026-05-05 02:20 56.38199 -128.32098 36027 ft 441 kts 314°
2026-05-05 02:20 56.42657 -128.39733 36034 ft 441 kts 314°
2026-05-05 02:21 56.47113 -128.47379 36012 ft 441 kts 313°
2026-05-05 02:21 56.51556 -128.55035 36006 ft 441 kts 314°
2026-05-05 02:22 56.55989 -128.62709 36007 ft 440 kts 313°
2026-05-05 02:22 56.60412 -128.70391 36005 ft 440 kts 313°
2026-05-05 02:23 56.64826 -128.78077 36001 ft 440 kts 313°
2026-05-05 02:23 56.69221 -128.85742 36033 ft 440 kts 313°
2026-05-05 02:24 56.73636 -128.93496 36032 ft 440 kts 313°
2026-05-05 02:24 56.78022 -129.01225 36024 ft 441 kts 313°
2026-05-05 02:25 56.82433 -129.09012 36026 ft 441 kts 313°
2026-05-05 02:25 56.86841 -129.16818 36020 ft 441 kts 312°
2026-05-05 02:26 56.91237 -129.24631 36040 ft 441 kts 312°
2026-05-05 02:26 56.95629 -129.32475 36048 ft 440 kts 312°
2026-05-05 02:27 57.00018 -129.40329 36047 ft 441 kts 312°
2026-05-05 02:27 57.04379 -129.48165 36069 ft 441 kts 312°
2026-05-05 02:28 57.08772 -129.56096 36063 ft 442 kts 311°
2026-05-05 02:28 57.13170 -129.64047 36058 ft 444 kts 311°
2026-05-05 02:29 57.17575 -129.72033 36047 ft 444 kts 311°
2026-05-05 02:29 57.21966 -129.80032 36062 ft 443 kts 311°
2026-05-05 02:30 57.26351 -129.88056 36066 ft 443 kts 311°
2026-05-05 02:30 57.30734 -129.96103 36058 ft 444 kts 311°
2026-05-05 02:31 57.35112 -130.04164 36059 ft 444 kts 311°
2026-05-05 02:31 57.39452 -130.12183 36057 ft 442 kts 311°
2026-05-05 02:32 57.43800 -130.20259 36065 ft 442 kts 310°
2026-05-05 02:32 57.48162 -130.28367 36070 ft 443 kts 310°
2026-05-05 02:33 57.52528 -130.36522 36067 ft 445 kts 310°
2026-05-05 02:33 57.56898 -130.44719 36064 ft 446 kts 310°
2026-05-05 02:34 57.61226 -130.52857 36068 ft 445 kts 310°
2026-05-05 02:34 57.65250 -130.61526 36051 ft 439 kts 301°
2026-05-05 02:35 57.68574 -130.71098 36072 ft 439 kts 298°
2026-05-05 02:35 57.71875 -130.80728 36066 ft 440 kts 298°
2026-05-05 02:36 57.75174 -130.90318 36075 ft 441 kts 298°
2026-05-05 02:36 57.78500 -130.99990 36057 ft 442 kts 298°
2026-05-05 02:37 57.81825 -131.09692 36080 ft 442 kts 298°
2026-05-05 02:37 57.85143 -131.19421 36080 ft 442 kts 298°
2026-05-05 02:38 57.88455 -131.29173 36073 ft 443 kts 298°
2026-05-05 02:38 57.91764 -131.38953 36086 ft 443 kts 298°
2026-05-05 02:39 57.95055 -131.48718 36086 ft 444 kts 298°
2026-05-05 02:39 57.97822 -131.56964 36088 ft 444 kts 298°
2026-05-05 02:40 58.01644 -131.68389 36098 ft 443 kts 297°
2026-05-05 02:40 58.04378 -131.76601 36081 ft 444 kts 297°
2026-05-05 02:41 58.07656 -131.86485 36085 ft 443 kts 297°
2026-05-05 02:41 58.10914 -131.96383 36100 ft 444 kts 297°
2026-05-05 02:42 58.14180 -132.06291 36108 ft 443 kts 297°
2026-05-05 02:42 58.17434 -132.16218 36100 ft 444 kts 297°
2026-05-05 02:43 58.20681 -132.26181 36114 ft 444 kts 296°
2026-05-05 02:43 58.23899 -132.36100 36106 ft 444 kts 296°
2026-05-05 02:44 58.27138 -132.46097 36118 ft 444 kts 296°
2026-05-05 02:44 58.30370 -132.56133 36115 ft 445 kts 296°
2026-05-05 02:45 58.33592 -132.66183 36124 ft 445 kts 296°
2026-05-05 02:45 58.36814 -132.76280 36136 ft 446 kts 295°
2026-05-05 02:46 58.40031 -132.86402 36133 ft 446 kts 295°
2026-05-05 02:46 58.43246 -132.96543 36132 ft 446 kts 295°
2026-05-05 02:47 58.46430 -133.06631 36137 ft 445 kts 295°
2026-05-05 02:47 58.49613 -133.16798 36127 ft 445 kts 295°
2026-05-05 02:48 58.52798 -133.26992 36119 ft 446 kts 294°
2026-05-05 02:48 58.55951 -133.37125 36123 ft 445 kts 294°
2026-05-05 02:49 58.59107 -133.47338 36091 ft 446 kts 294°
2026-05-05 02:49 58.62273 -133.57587 36111 ft 447 kts 294°
2026-05-05 02:50 58.65437 -133.67877 36123 ft 448 kts 294°
2026-05-05 02:50 58.68611 -133.78259 36097 ft 451 kts 293°
2026-05-05 02:51 58.71781 -133.88685 36104 ft 452 kts 293°
2026-05-05 02:51 58.74927 -133.99077 36082 ft 452 kts 293°
2026-05-05 02:52 58.78090 -134.09557 36076 ft 453 kts 293°
2026-05-05 02:52 58.81252 -134.20083 36061 ft 453 kts 293°
2026-05-05 02:53 58.84403 -134.30622 36073 ft 453 kts 292°
2026-05-05 02:53 58.87541 -134.41168 36043 ft 453 kts 292°
2026-05-05 02:54 58.90673 -134.51739 36043 ft 452 kts 292°
2026-05-05 02:54 58.93771 -134.62239 36039 ft 452 kts 292°
2026-05-05 02:55 58.96871 -134.72807 36032 ft 451 kts 292°
2026-05-05 02:55 58.99968 -134.83422 36035 ft 451 kts 292°
2026-05-05 02:56 59.03052 -134.94022 36039 ft 451 kts 292°
2026-05-05 02:56 59.06125 -135.04638 36047 ft 450 kts 291°
2026-05-05 02:57 59.09190 -135.15273 36044 ft 450 kts 291°
2026-05-05 02:57 59.12225 -135.25850 36035 ft 451 kts 291°
2026-05-05 02:58 59.15274 -135.36530 36049 ft 450 kts 291°
2026-05-05 02:58 59.18312 -135.47226 36034 ft 451 kts 291°
2026-05-05 02:59 59.21329 -135.57888 36020 ft 450 kts 291°
2026-05-05 02:59 59.24342 -135.68588 36029 ft 449 kts 291°
2026-05-05 03:00 59.27343 -135.79299 36000 ft 449 kts 291°
2026-05-05 03:00 59.30319 -135.89961 36128 ft 445 kts 290°
2026-05-05 03:01 59.33310 -136.00764 36073 ft 456 kts 290°
2026-05-05 03:01 59.36340 -136.11727 36077 ft 458 kts 290°
2026-05-05 03:02 59.39349 -136.22673 36081 ft 459 kts 290°
2026-05-05 03:02 59.42370 -136.33706 36077 ft 459 kts 290°
2026-05-05 03:03 59.45381 -136.44762 36091 ft 459 kts 290°
2026-05-05 03:03 59.48384 -136.55843 36083 ft 459 kts 290°
2026-05-05 03:04 59.51380 -136.66951 36078 ft 458 kts 290°
2026-05-05 03:04 59.54069 -136.76974 36079 ft 457 kts 289°
2026-05-05 03:05 59.57035 -136.88064 36087 ft 455 kts 289°
2026-05-05 03:05 59.59957 -136.99048 36071 ft 453 kts 289°
2026-05-05 03:06 59.62870 -137.10061 36083 ft 452 kts 289°
2026-05-05 03:06 59.65778 -137.21131 36062 ft 455 kts 289°
2026-05-05 03:07 59.68695 -137.32286 36059 ft 458 kts 289°
2026-05-05 03:07 59.71620 -137.43514 36047 ft 460 kts 289°
2026-05-05 03:08 59.74553 -137.54806 36063 ft 460 kts 288°
2026-05-05 03:08 59.77460 -137.66071 36074 ft 462 kts 288°
2026-05-05 03:09 59.80370 -137.77420 36072 ft 461 kts 288°
2026-05-05 03:09 59.83272 -137.88777 36079 ft 461 kts 288°
2026-05-05 03:10 59.86167 -138.00155 36069 ft 461 kts 288°
2026-05-05 03:10 59.89035 -138.11526 36096 ft 460 kts 288°
2026-05-05 03:11 59.91922 -138.22996 36075 ft 463 kts 288°
2026-05-05 03:11 59.94778 -138.34478 36075 ft 460 kts 288°
2026-05-05 03:12 59.97632 -138.45877 36078 ft 460 kts 288°
2026-05-05 03:12 60.00478 -138.57346 36062 ft 461 kts 287°
2026-05-05 03:13 60.03302 -138.68845 36049 ft 461 kts 287°
2026-05-05 03:13 60.06111 -138.80305 36127 ft 463 kts 287°
2026-05-05 03:14 60.09018 -138.91868 36050 ft 462 kts 289°
2026-05-05 03:14 60.11300 -139.03634 36071 ft 448 kts 275°
2026-05-05 03:15 60.12582 -139.15828 36056 ft 447 kts 273°
2026-05-05 03:15 60.13860 -139.28064 36087 ft 449 kts 273°
2026-05-05 03:16 60.15163 -139.40350 36040 ft 448 kts 273°
2026-05-05 03:16 60.15799 -139.46388 36142 ft 449 kts 273°
2026-05-05 03:16 60.16439 -139.52554 36097 ft 452 kts 273°
2026-05-05 03:17 60.17717 -139.64979 36052 ft 456 kts 273°
2026-05-05 03:17 60.18987 -139.77458 36059 ft 454 kts 273°
2026-05-05 03:18 60.20239 -139.89862 35993 ft 449 kts 273°
2026-05-05 03:18 60.21460 -140.02054 36095 ft 445 kts 272°
2026-05-05 03:19 60.23275 -140.20515 36079 ft 454 kts 272°
2026-05-05 03:19 60.24494 -140.33004 36074 ft 454 kts 272°
2026-05-05 03:20 60.25700 -140.45504 36047 ft 454 kts 272°
2026-05-05 03:20 60.26892 -140.58003 36027 ft 452 kts 272°
2026-05-05 03:21 60.28067 -140.70445 36012 ft 451 kts 271°
2026-05-05 03:21 60.29218 -140.82775 36027 ft 449 kts 271°
2026-05-05 03:22 60.30369 -140.95107 36011 ft 443 kts 271°
2026-05-05 03:22 60.31524 -141.07473 36060 ft 455 kts 271°
2026-05-05 03:23 60.32637 -141.20087 35988 ft 457 kts 271°
2026-05-05 03:23 60.33751 -141.32691 35987 ft 454 kts 271°
2026-05-05 03:24 60.34858 -141.45216 35987 ft 451 kts 271°
2026-05-05 03:24 60.35948 -141.57652 35992 ft 449 kts 271°
2026-05-05 03:25 60.37011 -141.69981 35997 ft 449 kts 271°
2026-05-05 03:25 60.38073 -141.82426 36004 ft 450 kts 270°
2026-05-05 03:26 60.39126 -141.94963 35984 ft 453 kts 270°
2026-05-05 03:26 60.40169 -142.07490 35965 ft 455 kts 270°
2026-05-05 03:27 60.41214 -142.20153 35972 ft 457 kts 270°
2026-05-05 03:27 60.42249 -142.32855 35983 ft 459 kts 270°
2026-05-05 03:28 60.43278 -142.45656 35959 ft 462 kts 270°
2026-05-05 03:28 60.44129 -142.56352 35974 ft 463 kts 270°
2026-05-05 03:29 60.45142 -142.69217 35966 ft 462 kts 269°
2026-05-05 03:29 60.46136 -142.82050 35965 ft 460 kts 269°
2026-05-05 03:30 60.47117 -142.94875 35970 ft 459 kts 269°
2026-05-05 03:30 60.48078 -143.07601 35970 ft 459 kts 269°
2026-05-05 03:31 60.49032 -143.20396 35961 ft 459 kts 269°
2026-05-05 03:31 60.49976 -143.33228 35941 ft 460 kts 269°
2026-05-05 03:32 60.50906 -143.46061 35957 ft 459 kts 269°
2026-05-05 03:32 60.51819 -143.58832 35953 ft 460 kts 269°
2026-05-05 03:33 60.52725 -143.71709 35960 ft 460 kts 269°
2026-05-05 03:33 60.53623 -143.84598 36013 ft 461 kts 268°
2026-05-05 03:34 60.54510 -143.97577 35971 ft 465 kts 268°
2026-05-05 03:34 60.55386 -144.10599 35970 ft 464 kts 268°
2026-05-05 03:35 60.56258 -144.23638 35959 ft 465 kts 268°
2026-05-05 03:35 60.57111 -144.36514 35866 ft 452 kts 268°
2026-05-05 03:36 60.57525 -144.42832 35736 ft 448 kts 267°
2026-05-05 03:36 60.57932 -144.49093 35537 ft 445 kts 268°
2026-05-05 03:36 60.58351 -144.55247 35120 ft 444 kts 266°
2026-05-05 03:36 60.58738 -144.61466 34747 ft 442 kts 265°
2026-05-05 03:37 60.59112 -144.67652 34335 ft 436 kts 265°
2026-05-05 03:37 60.59487 -144.73698 33797 ft 423 kts 264°
2026-05-05 03:37 60.59853 -144.79531 33273 ft 409 kts 264°
2026-05-05 03:37 60.60205 -144.85271 32352 ft 414 kts 264°
2026-05-05 03:38 60.60545 -144.91270 31377 ft 435 kts 264°
2026-05-05 03:38 60.60897 -144.97496 30610 ft 450 kts 265°
2026-05-05 03:38 60.61268 -145.03896 30042 ft 459 kts 265°
2026-05-05 03:38 60.61656 -145.10384 29468 ft 464 kts 265°
2026-05-05 03:39 60.62052 -145.16933 28922 ft 468 kts 266°
2026-05-05 03:39 60.62448 -145.23534 28429 ft 470 kts 266°
2026-05-05 03:39 60.62835 -145.30076 27953 ft 471 kts 266°
2026-05-05 03:39 60.63226 -145.36724 27384 ft 474 kts 266°
2026-05-05 03:40 60.63607 -145.43442 26702 ft 480 kts 266°
2026-05-05 03:40 60.63986 -145.50239 26147 ft 482 kts 266°
2026-05-05 03:40 60.64366 -145.57041 26004 ft 487 kts 266°
2026-05-05 03:40 60.64748 -145.63916 25944 ft 485 kts 266°
2026-05-05 03:41 60.65123 -145.70662 25968 ft 484 kts 266°
2026-05-05 03:41 60.65504 -145.77484 25932 ft 484 kts 266°
2026-05-05 03:41 60.65876 -145.84289 25991 ft 483 kts 266°
2026-05-05 03:41 60.66235 -145.91123 25964 ft 483 kts 266°
2026-05-05 03:42 60.66592 -145.97949 25957 ft 484 kts 266°
2026-05-05 03:42 60.66932 -146.04774 25968 ft 483 kts 265°
2026-05-05 03:42 60.67224 -146.11595 26016 ft 483 kts 265°
2026-05-05 03:42 60.67493 -146.18464 25962 ft 487 kts 264°
2026-05-05 03:43 60.67752 -146.25365 25963 ft 489 kts 264°
2026-05-05 03:43 60.68009 -146.32289 25956 ft 490 kts 264°
2026-05-05 03:43 60.68267 -146.39156 25954 ft 491 kts 264°
2026-05-05 03:43 60.68529 -146.46113 25951 ft 492 kts 264°
2026-05-05 03:44 60.68793 -146.53073 25951 ft 492 kts 264°
2026-05-05 03:44 60.69053 -146.60045 25953 ft 492 kts 264°
2026-05-05 03:44 60.69311 -146.66997 25953 ft 491 kts 264°
2026-05-05 03:44 60.69568 -146.73969 25943 ft 491 kts 264°
2026-05-05 03:45 60.69818 -146.80905 25933 ft 490 kts 264°
2026-05-05 03:45 60.70063 -146.87841 25978 ft 489 kts 264°
2026-05-05 03:45 60.70303 -146.94792 25945 ft 490 kts 265°
2026-05-05 03:45 60.70536 -147.01648 25941 ft 490 kts 264°
2026-05-05 03:46 60.70770 -147.08590 25940 ft 490 kts 264°
2026-05-05 03:46 60.71001 -147.15569 25938 ft 491 kts 264°
2026-05-05 03:46 60.71228 -147.22519 25936 ft 491 kts 264°
2026-05-05 03:46 60.71452 -147.29484 25938 ft 491 kts 264°
2026-05-05 03:47 60.71672 -147.36446 25923 ft 491 kts 264°
2026-05-05 03:47 60.71889 -147.43414 25926 ft 491 kts 264°
2026-05-05 03:47 60.72098 -147.50383 25920 ft 491 kts 264°
2026-05-05 03:47 60.72306 -147.57264 25915 ft 486 kts 264°
2026-05-05 03:48 60.72517 -147.64053 25906 ft 473 kts 264°
2026-05-05 03:48 60.72716 -147.70747 25319 ft 471 kts 265°
2026-05-05 03:48 60.72905 -147.77413 24755 ft 466 kts 265°
2026-05-05 03:48 60.73087 -147.83986 24194 ft 462 kts 265°
2026-05-05 03:49 60.73264 -147.90519 23624 ft 458 kts 265°
2026-05-05 03:49 60.73437 -147.96996 22975 ft 455 kts 265°
2026-05-05 03:49 60.73607 -148.03428 22368 ft 450 kts 265°
2026-05-05 03:49 60.73774 -148.09763 21818 ft 445 kts 265°
2026-05-05 03:50 60.73936 -148.16053 21283 ft 440 kts 266°
2026-05-05 03:50 60.74098 -148.22270 20735 ft 437 kts 267°
2026-05-05 03:50 60.74597 -148.28408 20236 ft 441 kts 278°
2026-05-05 03:50 60.75501 -148.34403 19711 ft 440 kts 282°
2026-05-05 03:51 60.76456 -148.40239 19205 ft 437 kts 283°
2026-05-05 03:51 60.77410 -148.46109 18684 ft 433 kts 283°
2026-05-05 03:51 60.78332 -148.51965 18186 ft 430 kts 283°
2026-05-05 03:51 60.79224 -148.57781 17599 ft 427 kts 282°
2026-05-05 03:52 60.80075 -148.63523 17231 ft 417 kts 282°
2026-05-05 03:52 60.80903 -148.69180 16759 ft 413 kts 282°
2026-05-05 03:52 60.81722 -148.74793 16225 ft 411 kts 281°
2026-05-05 03:52 60.82539 -148.80392 15735 ft 408 kts 281°
2026-05-05 03:53 60.83349 -148.85964 15250 ft 407 kts 281°
2026-05-05 03:53 60.84149 -148.91518 14752 ft 405 kts 281°
2026-05-05 03:53 60.84942 -148.97059 14248 ft 403 kts 281°
2026-05-05 03:53 60.85722 -149.02484 13778 ft 400 kts 281°
2026-05-05 03:54 60.86507 -149.07944 13268 ft 397 kts 281°
2026-05-05 03:54 60.87282 -149.13350 12741 ft 393 kts 281°
2026-05-05 03:54 60.88048 -149.18723 12286 ft 389 kts 281°
2026-05-05 03:54 60.88860 -149.24034 11827 ft 390 kts 286°
2026-05-05 03:55 60.89923 -149.29126 11576 ft 386 kts 291°
2026-05-05 03:55 60.91097 -149.34036 11257 ft 379 kts 292°
2026-05-05 03:55 60.92266 -149.38830 10935 ft 372 kts 292°
2026-05-05 03:55 60.93393 -149.43555 10611 ft 365 kts 292°
2026-05-05 03:56 60.94478 -149.48218 10316 ft 358 kts 291°
2026-05-05 03:56 60.95526 -149.52807 10015 ft 351 kts 291°
2026-05-05 03:56 60.96544 -149.57307 9862 ft 340 kts 291°
2026-05-05 03:56 60.97515 -149.61606 9592 ft 331 kts 291°
2026-05-05 03:57 60.98464 -149.65830 9190 ft 318 kts 291°
2026-05-05 03:57 60.99369 -149.69855 8872 ft 302 kts 291°
2026-05-05 03:57 61.00266 -149.73664 8628 ft 292 kts 298°
2026-05-05 03:57 61.01629 -149.76771 8103 ft 297 kts 319°
2026-05-05 03:58 61.03210 -149.79590 8023 ft 301 kts 317°
2026-05-05 03:58 61.04727 -149.82460 7991 ft 288 kts 316°
2026-05-05 03:58 61.06159 -149.85208 8019 ft 272 kts 315°
2026-05-05 03:58 61.07542 -149.87873 7843 ft 275 kts 315°
2026-05-05 03:59 61.08931 -149.90549 7581 ft 271 kts 316°
2026-05-05 03:59 61.10116 -149.93423 7255 ft 256 kts 291°
2026-05-05 03:59 61.10509 -149.96804 7028 ft 233 kts 265°
2026-05-05 03:59 61.10491 -150.00086 6813 ft 226 kts 261°
2026-05-05 04:00 61.10449 -150.03349 6596 ft 228 kts 261°
2026-05-05 04:00 61.10406 -150.06610 6359 ft 227 kts 261°
2026-05-05 04:00 61.10363 -150.09868 6136 ft 226 kts 261°
2026-05-05 04:00 61.10321 -150.13077 5898 ft 226 kts 261°
2026-05-05 04:01 61.10280 -150.16321 5659 ft 225 kts 262°
2026-05-05 04:01 61.10240 -150.19532 5488 ft 221 kts 262°
2026-05-05 04:01 61.10200 -150.22675 5380 ft 218 kts 262°
2026-05-05 04:01 61.10157 -150.25845 5299 ft 223 kts 262°
2026-05-05 04:02 61.10112 -150.29090 5056 ft 228 kts 263°
2026-05-05 04:02 61.10188 -150.32350 4798 ft 228 kts 283°
2026-05-05 04:02 61.11047 -150.35013 4575 ft 222 kts 326°
2026-05-05 04:02 61.12427 -150.36057 4422 ft 208 kts
2026-05-05 04:03 61.13771 -150.35285 3904 ft 200 kts 45°
2026-05-05 04:03 61.14638 -150.33168 3403 ft 192 kts 54°
2026-05-05 04:03 61.15483 -150.31013 2887 ft 192 kts 59°
2026-05-05 04:03 61.16080 -150.28646 2555 ft 183 kts 72°
2026-05-05 04:04 61.16417 -150.26195 2321 ft 170 kts 81°
2026-05-05 04:04 61.16598 -150.23814 2147 ft 171 kts 85°
2026-05-05 04:04 61.16711 -150.21338 1956 ft 171 kts 86°
2026-05-05 04:04 61.16777 -150.18977 1786 ft 157 kts 89°
2026-05-05 04:05 61.16816 -150.16748 1679 ft 154 kts 88°
2026-05-05 04:05 61.16867 -150.14508 1628 ft 158 kts 88°
2026-05-05 04:05 61.16930 -150.12227 1602 ft 158 kts 86°
2026-05-05 04:05 61.16967 -150.09950 1575 ft 160 kts 89°
2026-05-05 04:06 61.16967 -150.07574 1250 ft 167 kts 90°
2026-05-05 04:06 61.16962 -150.05254 784 ft 155 kts 88°
2026-05-05 04:06 61.16972 -150.03017 463 ft 156 kts 88°
2026-05-05 04:06 61.16976 -150.00824 207 ft 145 kts 88°
2026-05-05 04:07 61.16981 -149.98920 126 ft 113 kts 90°
2026-05-05 04:07 61.16980 -149.97670 113 ft 60 kts 90°
2026-05-05 04:07 61.16981 -149.97183 109 ft 13 kts 91°
2026-05-05 04:07 61.16980 -149.97013 107 ft 2 kts 89°
2026-05-05 04:08 61.16980 -149.96969 108 ft 4 kts 89°
2026-05-05 04:08 61.16985 -149.96894 106 ft 6 kts 77°
2026-05-05 04:08 61.17018 -149.96822 106 ft 9 kts 22°
2026-05-05 04:08 61.17075 -149.96809 101 ft 8 kts 355°
2026-05-05 04:09 61.17123 -149.96877 102 ft 9 kts 300°
2026-05-05 04:09 61.17128 -149.96997 103 ft 9 kts 270°
2026-05-05 04:09 61.17128 -149.97120 104 ft 9 kts 269°
2026-05-05 04:09 61.17127 -149.97243 106 ft 9 kts 270°
2026-05-05 04:10 61.17123 -149.97366 110 ft 9 kts 266°
2026-05-05 04:10 61.17119 -149.97489 109 ft 9 kts 266°
2026-05-05 04:10 61.17117 -149.97612 110 ft 9 kts 270°
2026-05-05 04:10 61.17117 -149.97735 112 ft 9 kts 270°
2026-05-05 04:11 61.17118 -149.97858 112 ft 9 kts 270°
2026-05-05 04:11 61.17118 -149.97981 116 ft 9 kts 269°
2026-05-05 04:11 61.17117 -149.98104 116 ft 9 kts 269°
2026-05-05 04:11 61.17117 -149.98225 117 ft 9 kts 270°
2026-05-05 04:12 61.17117 -149.98348 119 ft 9 kts 270°
2026-05-05 04:12 61.17117 -149.98471 120 ft 9 kts 270°
2026-05-05 04:12 61.17117 -149.98594 118 ft 9 kts 269°
2026-05-05 04:12 61.17115 -149.98717 120 ft 9 kts 269°
2026-05-05 04:13 61.17117 -149.98840 118 ft 9 kts 272°
2026-05-05 04:13 61.17122 -149.98963 117 ft 9 kts 274°
2026-05-05 04:13 61.17125 -149.99085 121 ft 9 kts 271°
2026-05-05 04:13 61.17126 -149.99208 123 ft 9 kts 270°
2026-05-05 04:14 61.17125 -149.99331 128 ft 8 kts 270°
2026-05-05 04:14 61.17130 -149.99452 127 ft 9 kts 287°
2026-05-05 04:14 61.17174 -149.99529 125 ft 9 kts 339°
2026-05-05 04:14 61.17230 -149.99565 124 ft 9 kts 344°
2026-05-05 04:15 61.17288 -149.99597 124 ft 9 kts 345°
2026-05-05 04:15 61.17345 -149.99629 123 ft 9 kts 345°
2026-05-05 04:15 61.17383 -149.99650 122 ft 9 kts 345°
2026-05-05 04:15 61.17459 -149.99693 122 ft 9 kts 345°
2026-05-05 04:16 61.17516 -149.99725 121 ft 9 kts 345°
2026-05-05 04:16 61.17573 -149.99757 121 ft 9 kts 345°
2026-05-05 04:16 61.17611 -149.99779 122 ft 9 kts 345°
2026-05-05 04:16 61.17669 -149.99811 122 ft 9 kts 345°
2026-05-05 04:17 61.17726 -149.99843 121 ft 9 kts 345°
2026-05-05 04:17 61.17802 -149.99884 118 ft 9 kts 345°
2026-05-05 04:17 61.17841 -149.99906 120 ft 9 kts 344°
2026-05-05 04:17 61.17898 -149.99939 118 ft 9 kts 345°
2026-05-05 04:18 61.17968 -149.99977 113 ft 11 kts 345°
2026-05-05 04:18 61.18049 -150.00023 112 ft 13 kts 345°
2026-05-05 04:18 61.18138 -150.00072 128 ft 13 kts 345°
2026-05-05 04:18 61.18226 -150.00121 126 ft 13 kts 345°
2026-05-05 04:19 61.18314 -150.00171 126 ft 13 kts 345°
2026-05-05 04:19 61.18403 -150.00221 127 ft 13 kts 345°
2026-05-05 04:19 61.18489 -150.00269 128 ft 12 kts 345°
2026-05-05 04:19 61.18570 -150.00314 129 ft 10 kts 345°
2026-05-05 04:20 61.18625 -150.00344 131 ft 8 kts 346°
2026-05-05 04:20 61.18675 -150.00326 132 ft 8 kts 34°
2026-05-05 04:20 61.18702 -150.00223 124 ft 9 kts 71°
2026-05-05 04:20 61.18722 -150.00089 129 ft 11 kts 73°
2026-05-05 04:21 61.18753 -149.99995 113 ft 8 kts 28°
2026-05-05 04:21 61.18810 -149.99999 114 ft 8 kts 347°
2026-05-05 04:21 61.18860 -150.00031 111 ft 6 kts 329°
2026-05-05 04:21 61.18870 -150.00106 120 ft 5 kts 266°
2026-05-05 04:22 61.18864 -150.00172 122 ft 3 kts 255°
2026-05-05 04:22 61.18862 -150.00188 121 ft 0 kts 255°